1998-067SS

Last updated on Dec. 9, 2021, 12:03 a.m. UTC

1 49273U 98067SS  21342.47236209  .00011322  00000+0  19085-3 0  9994
2 49273  51.6397 199.9146 0002940 321.0676  39.0102 15.52180126  9888
UTC
Height (km)
Latitude
Longitude
Inclination
Orbital Period
UTC large
Height (km)
Speed (km/s)
/
Latitude / Longitude
Inclination (degrees)
Orbital Period (minutes)
Azimuth
Elevation
Range (km)
Doppler Factor
iOS Compass Heading
iOS Angle